Flag for Germany Weather past 2 weeks in Pirmasens, Rhineland-Palatinate, Germany

Now
39 °F

Clear.


Feels Like: 39 °F
Forecast: 44 / 56 °F
Wind: 1 mph from Southeast

Location: Ramstein

Current Time: Sep 5, 2015 at 4:07:20 AM

Latest Report: Sep 5, 2015 at 2:58 AM


Visibility: N/A

Pressure: 30.03 "Hg

Humidity: 91%

Dew point: 37 °F

Location of PirmasensLocation

Historic Weather in Pirmasens — Graph

°F

Pirmasens temperature yesterday

Maximum temperature yesterday: 65 °F (at 3:58 PM)
Minimum temperature yesterday: 38 °F (at 3:58 AM)
Average temperature yesterday: 52 °F

Past Weeks' High & Low Weather Summary

 TemperatureHumidityPressure
High92 °F (Aug 30, 4:58 PM)100% (Aug 21, 4:58 AM)30.27 "Hg (Aug 21, 4:58 AM)
Low38 °F (Sep 4, 3:58 AM)21% (Aug 31, 2:58 PM)29.66 "Hg (Aug 24, 12:58 PM)
Average65 °F69%29.98 "Hg
* Reported Aug 21 2:58 AM — Sep 5 2:58 AM, Pirmasens, Weather by CustomWeather, © 2015

Note: Actual official high and low records may vary slightly from our data, if they occured in-between our weather recording intervals... More about our weather records

Advertising

Pirmasens weather history for previous 24 hours

 ConditionsComfort  
Time TempWeatherWind HumidityBarometerVisibility
2:58 AM
Sat, Sep 5
39 °FClear.1 mph93%30.03 "HgN/A
1:58 AM44 °FClear.5 mph90%30.03 "HgN/A
12:58 AM43 °FClear.No wind93%30.03 "HgN/A
11:58 PM
Fri, Sep 4
46 °FClear.No wind87%30.03 "HgN/A
10:58 PM45 °FClear.No wind91%30.02 "HgN/A
9:58 PM50 °FClear.No wind76%30.02 "HgN/A
8:58 PM54 °FSunny.3 mph68%30.01 "HgN/A
7:58 PM58 °FSunny.5 mph55%30.00 "HgN/A
6:58 PM62 °FSunny.10 mph45%30.00 "HgN/A
5:58 PM64 °FPartly sunny.15 mph40%29.99 "HgN/A
4:58 PM65 °FPartly sunny.13 mph38%30.00 "HgN/A
3:58 PM65 °FPassing clouds.9 mph35%30.00 "HgN/A
2:58 PM63 °FPassing clouds.8 mph38%30.02 "HgN/A
1:58 PM62 °FPartly sunny.12 mph44%30.03 "HgN/A
12:58 PM61 °FPartly sunny.9 mph48%30.04 "HgN/A
11:58 AM61 °FPassing clouds.9 mph49%30.04 "HgN/A
10:58 AM60 °FSunny.8 mph58%30.04 "HgN/A
9:58 AM56 °FScattered clouds.6 mph68%30.03 "HgN/A
8:58 AM51 °FOvercast.3 mph85%30.03 "HgN/A
7:58 AM46 °FOvercast.No wind92%30.02 "HgN/A
6:58 AM43 °FOvercast.No wind94%30.01 "HgN/A
5:58 AM39 °FPassing clouds.No wind94%30.01 "HgN/A
4:58 AM39 °FClear.2 mph96%30.01 "HgN/A
Weather by CustomWeather, © 2015

See weather overviewHow to use our weather pages